Time,TemperatureF,DewpointF,PressureIn,WindDirection,WindDirectionDegrees,WindSpeedMPH,WindSpeedGustMPH,Humidity,HourlyPrecipIn,Conditions,Clouds,dailyrainin,SoftwareType,DateUTC
2013-06-04 00:03:00,39.9,39.0,0.00,SE,142,15.3,-999.0,100,0.00,,,-99.99,,2013-06-04 08:03:00,
2013-06-04 00:08:00,39.7,39.6,0.00,SE,132,13.1,-999.0,99,0.01,,,-99.99,,2013-06-04 08:08:00,
2013-06-04 00:13:00,39.8,39.8,0.00,SE,134,13.9,-999.0,99,0.01,,,-99.99,,2013-06-04 08:13:00,
2013-06-04 00:18:00,39.8,39.7,0.00,SE,133,14.9,-999.0,99,0.01,,,-99.99,,2013-06-04 08:18:00,
2013-06-04 00:23:00,39.8,39.0,0.00,SE,131,14.3,-999.0,100,0.02,,,-99.99,,2013-06-04 08:23:00,
2013-06-04 00:28:00,39.9,39.0,0.00,SE,137,13.1,-999.0,100,0.03,,,-99.99,,2013-06-04 08:28:00,
2013-06-04 00:33:00,39.9,39.0,0.00,SE,134,11.8,-999.0,100,0.04,,,-99.99,,2013-06-04 08:33:00,
2013-06-04 00:38:00,39.8,39.8,0.00,SE,141,11.8,-999.0,99,0.04,,,-99.99,,2013-06-04 08:38:00,
2013-06-04 00:45:00,39.8,39.8,0.00,SE,142,12.5,-999.0,99,0.04,,,-99.99,,2013-06-04 08:45:00,
2013-06-04 00:50:00,39.8,39.0,0.00,SE,132,12.3,-999.0,100,0.04,,,-99.99,,2013-06-04 08:50:00,
2013-06-04 00:58:00,39.8,39.0,0.00,SE,133,11.3,-999.0,100,0.04,,,-99.99,,2013-06-04 08:58:00,
2013-06-04 01:03:00,39.7,39.7,0.00,SE,135,12.4,-999.0,99,0.00,,,-99.99,,2013-06-04 09:03:00,
2013-06-04 01:08:00,39.6,39.6,0.00,SE,131,8.3,-999.0,99,0.00,,,-99.99,,2013-06-04 09:08:00,
2013-06-04 01:13:00,39.6,39.0,0.00,SE,132,8.7,-999.0,100,0.00,,,-99.99,,2013-06-04 09:13:00,
2013-06-04 01:20:00,39.7,39.7,0.00,SE,129,7.8,-999.0,99,0.00,,,-99.99,,2013-06-04 09:20:00,
2013-06-04 01:26:00,39.6,39.0,0.00,SE,138,8.0,-999.0,100,0.00,,,-99.99,,2013-06-04 09:26:00,
2013-06-04 01:31:00,39.9,39.0,0.00,SE,143,7.9,-999.0,100,0.01,,,-99.99,,2013-06-04 09:31:00,
2013-06-04 01:36:00,39.8,39.0,0.00,SE,134,6.4,-999.0,100,0.01,,,-99.99,,2013-06-04 09:36:00,
2013-06-04 01:41:00,39.8,39.0,0.00,SE,143,5.1,-999.0,100,0.02,,,-99.99,,2013-06-04 09:41:00,
2013-06-04 01:47:00,39.8,39.0,0.00,SSE,148,6.4,-999.0,100,0.02,,,-99.99,,2013-06-04 09:47:00,
2013-06-04 01:52:00,39.8,39.0,0.00,SSE,147,6.5,-999.0,100,0.03,,,-99.99,,2013-06-04 09:52:00,
2013-06-04 01:58:00,39.8,39.0,0.00,SE,140,6.4,-999.0,100,0.03,,,-99.99,,2013-06-04 09:58:00,
2013-06-04 02:03:00,39.8,39.0,0.00,SE,140,6.2,-999.0,100,0.01,,,-99.99,,2013-06-04 10:03:00,
2013-06-04 02:08:00,39.8,39.0,0.00,SSE,151,6.1,-999.0,100,0.01,,,-99.99,,2013-06-04 10:08:00,
2013-06-04 02:13:00,39.8,39.0,0.00,SSE,161,5.7,-999.0,100,0.01,,,-99.99,,2013-06-04 10:13:00,
2013-06-04 02:19:00,39.8,39.0,0.00,SE,143,3.9,-999.0,100,0.02,,,-99.99,,2013-06-04 10:19:00,
2013-06-04 02:24:00,39.7,39.0,0.00,SSE,150,4.7,-999.0,100,0.03,,,-99.99,,2013-06-04 10:24:00,
2013-06-04 02:29:00,39.8,39.0,0.00,SE,145,3.9,-999.0,100,0.03,,,-99.99,,2013-06-04 10:29:00,
2013-06-04 02:34:00,39.8,39.8,0.00,SE,143,4.1,-999.0,99,0.04,,,-99.99,,2013-06-04 10:34:00,
2013-06-04 02:39:00,39.7,39.0,0.00,SE,139,5.3,-999.0,100,0.05,,,-99.99,,2013-06-04 10:39:00,
2013-06-04 02:44:00,39.6,39.5,0.00,SE,141,4.9,-999.0,99,0.05,,,-99.99,,2013-06-04 10:44:00,
2013-06-04 02:49:00,39.7,39.0,0.00,SE,143,4.0,-999.0,100,0.06,,,-99.99,,2013-06-04 10:49:00,
2013-06-04 02:54:00,39.6,39.5,0.00,SE,144,3.8,-999.0,99,0.06,,,-99.99,,2013-06-04 10:54:00,
2013-06-04 02:59:00,39.5,39.0,0.00,SSE,147,3.5,-999.0,100,0.00,,,-99.99,,2013-06-04 10:59:00,
2013-06-04 03:04:00,39.5,39.5,0.00,SE,144,4.0,-999.0,99,0.00,,,-99.99,,2013-06-04 11:04:00,
2013-06-04 03:09:00,39.5,39.0,0.00,SSE,149,3.8,-999.0,100,0.00,,,-99.99,,2013-06-04 11:09:00,
2013-06-04 03:14:00,39.6,39.0,0.00,SSE,151,4.1,-999.0,100,0.00,,,-99.99,,2013-06-04 11:14:00,
2013-06-04 03:19:00,39.6,39.0,0.00,SSE,154,4.1,-999.0,100,0.00,,,-99.99,,2013-06-04 11:19:00,
2013-06-04 03:26:00,39.5,39.5,0.00,SSE,150,2.7,-999.0,99,0.00,,,-99.99,,2013-06-04 11:26:00,
2013-06-04 03:31:00,39.5,39.0,0.00,SSE,158,3.8,-999.0,100,0.00,,,-99.99,,2013-06-04 11:31:00,
2013-06-04 03:36:00,39.6,39.0,0.00,SE,145,2.3,-999.0,100,0.00,,,-99.99,,2013-06-04 11:36:00,
2013-06-04 03:41:00,39.7,39.7,0.00,SSE,154,3.1,-999.0,99,0.00,,,-99.99,,2013-06-04 11:41:00,
2013-06-04 03:46:00,39.5,39.0,0.00,SSE,154,3.5,-999.0,100,0.00,,,-99.99,,2013-06-04 11:46:00,
2013-06-04 03:51:00,39.5,39.0,0.00,SSE,154,3.8,-999.0,100,0.00,,,-99.99,,2013-06-04 11:51:00,
2013-06-04 03:56:00,39.5,39.4,0.00,SSE,163,3.8,-999.0,99,0.00,,,-99.99,,2013-06-04 11:56:00,
2013-06-04 04:02:00,39.4,39.0,0.00,SSE,165,3.4,-999.0,100,0.01,,,-99.99,,2013-06-04 12:02:00,
2013-06-04 04:07:00,39.3,39.0,0.00,South,172,2.9,-999.0,100,0.01,,,-99.99,,2013-06-04 12:07:00,
2013-06-04 04:12:00,39.5,39.0,0.00,SSE,158,2.2,-999.0,100,0.01,,,-99.99,,2013-06-04 12:12:00,
2013-06-04 04:17:00,39.5,39.0,0.00,SE,146,2.4,-999.0,100,0.01,,,-99.99,,2013-06-04 12:17:00,
2013-06-04 04:24:00,39.2,39.2,0.00,SSE,148,2.7,-999.0,99,0.01,,,-99.99,,2013-06-04 12:24:00,
2013-06-04 04:29:00,39.2,39.0,0.00,SSE,147,2.4,-999.0,100,0.01,,,-99.99,,2013-06-04 12:29:00,
2013-06-04 04:34:00,39.3,39.2,0.00,SE,145,3.4,-999.0,99,0.01,,,-99.99,,2013-06-04 12:34:00,
2013-06-04 04:40:00,39.5,39.0,0.00,SE,145,3.8,-999.0,100,0.01,,,-99.99,,2013-06-04 12:40:00,
2013-06-04 04:45:00,39.3,39.2,0.00,SSE,148,3.2,-999.0,99,0.01,,,-99.99,,2013-06-04 12:45:00,
2013-06-04 04:50:00,39.0,38.9,0.00,SE,144,4.0,-999.0,99,0.01,,,-99.99,,2013-06-04 12:50:00,
2013-06-04 04:55:00,39.2,39.0,0.00,SE,138,4.0,-999.0,100,0.01,,,-99.99,,2013-06-04 12:55:00,
2013-06-04 05:01:00,39.3,39.2,0.00,SE,140,3.7,-999.0,99,0.00,,,-99.99,,2013-06-04 13:01:00,
2013-06-04 05:07:00,39.2,39.1,0.00,SE,143,3.9,-999.0,99,0.00,,,-99.99,,2013-06-04 13:07:00,
2013-06-04 05:12:00,39.1,39.0,0.00,SSE,147,4.0,-999.0,100,0.00,,,-99.99,,2013-06-04 13:12:00,
2013-06-04 05:17:00,39.0,39.0,0.00,SE,140,5.1,-999.0,100,0.00,,,-99.99,,2013-06-04 13:17:00,
2013-06-04 05:29:00,39.0,38.0,0.00,SE,139,2.6,-999.0,100,0.01,,,-99.99,,2013-06-04 13:29:00,
2013-06-04 05:34:00,39.0,39.0,0.00,SE,135,3.8,-999.0,100,0.01,,,-99.99,,2013-06-04 13:34:00,
2013-06-04 05:39:00,39.2,39.0,0.00,SE,135,5.2,-999.0,100,0.01,,,-99.99,,2013-06-04 13:39:00,
2013-06-04 05:44:00,39.1,39.0,0.00,SE,138,5.1,-999.0,100,0.01,,,-99.99,,2013-06-04 13:44:00,
2013-06-04 05:49:00,38.9,38.0,0.00,SE,130,4.5,-999.0,100,0.01,,,-99.99,,2013-06-04 13:49:00,
2013-06-04 05:54:00,38.9,38.9,0.00,SE,128,4.3,-999.0,99,0.01,,,-99.99,,2013-06-04 13:54:00,
2013-06-04 06:00:00,39.0,38.9,0.00,SE,127,4.2,-999.0,99,0.00,,,-99.99,,2013-06-04 14:00:00,
2013-06-04 06:05:00,39.0,39.0,0.00,SE,133,3.6,-999.0,100,0.00,,,-99.99,,2013-06-04 14:05:00,
2013-06-04 06:10:00,39.0,39.0,0.00,SSE,148,4.7,-999.0,100,0.01,,,-99.99,,2013-06-04 14:10:00,
2013-06-04 06:15:00,39.1,39.1,0.00,SE,142,3.9,-999.0,99,0.01,,,-99.99,,2013-06-04 14:15:00,
2013-06-04 06:21:00,39.0,39.0,0.00,SSE,148,4.5,-999.0,100,0.01,,,-99.99,,2013-06-04 14:21:00,
2013-06-04 06:27:00,38.9,38.0,0.00,SE,145,4.7,-999.0,100,0.01,,,-99.99,,2013-06-04 14:27:00,
2013-06-04 06:32:00,38.8,38.0,0.00,SE,143,3.9,-999.0,100,0.01,,,-99.99,,2013-06-04 14:32:00,
2013-06-04 06:38:00,39.0,38.9,0.00,SE,144,3.9,-999.0,99,0.01,,,-99.99,,2013-06-04 14:38:00,
2013-06-04 06:44:00,38.9,38.0,0.00,SE,125,3.8,-999.0,100,0.01,,,-99.99,,2013-06-04 14:44:00,
2013-06-04 06:49:00,39.1,39.0,0.00,SE,126,3.5,-999.0,100,0.01,,,-99.99,,2013-06-04 14:49:00,
2013-06-04 06:54:00,39.2,39.1,0.00,SE,126,4.2,-999.0,99,0.01,,,-99.99,,2013-06-04 14:54:00,
2013-06-04 06:59:00,39.0,39.0,0.00,SE,125,3.9,-999.0,100,0.00,,,-99.99,,2013-06-04 14:59:00,
2013-06-04 07:04:00,39.1,39.0,0.00,SE,136,4.0,-999.0,100,0.00,,,-99.99,,2013-06-04 15:04:00,
2013-06-04 07:10:00,39.2,39.1,0.00,SE,129,3.2,-999.0,99,0.00,,,-99.99,,2013-06-04 15:10:00,
2013-06-04 07:15:00,39.2,39.0,0.00,SE,135,3.2,-999.0,100,0.00,,,-99.99,,2013-06-04 15:15:00,
2013-06-04 07:20:00,39.4,39.0,0.00,SE,142,3.7,-999.0,100,0.00,,,-99.99,,2013-06-04 15:20:00,
2013-06-04 07:25:00,39.3,39.0,0.00,SE,145,4.9,-999.0,100,0.00,,,-99.99,,2013-06-04 15:25:00,
2013-06-04 07:31:00,39.3,39.0,0.00,SSE,151,5.2,-999.0,100,0.00,,,-99.99,,2013-06-04 15:31:00,
2013-06-04 07:36:00,39.1,39.0,0.00,SSE,154,4.9,-999.0,100,0.01,,,-99.99,,2013-06-04 15:36:00,
2013-06-04 07:42:00,39.3,39.0,0.00,SSE,147,4.8,-999.0,100,0.01,,,-99.99,,2013-06-04 15:42:00,
2013-06-04 07:47:00,39.4,39.0,0.00,SSE,147,5.6,-999.0,100,0.01,,,-99.99,,2013-06-04 15:47:00,
2013-06-04 07:52:00,39.3,39.3,0.00,SSE,155,5.0,-999.0,99,0.01,,,-99.99,,2013-06-04 15:52:00,
2013-06-04 07:57:00,39.2,39.0,0.00,SSE,149,5.6,-999.0,100,0.01,,,-99.99,,2013-06-04 15:57:00,
2013-06-04 08:02:00,39.6,39.0,0.00,SSE,164,5.1,-999.0,100,0.00,,,-99.99,,2013-06-04 16:02:00,
2013-06-04 08:07:00,39.6,39.0,0.00,SE,140,3.7,-999.0,100,0.00,,,-99.99,,2013-06-04 16:07:00,
2013-06-04 08:12:00,39.6,39.5,0.00,SSE,155,5.3,-999.0,99,0.00,,,-99.99,,2013-06-04 16:12:00,
2013-06-04 08:17:00,39.4,39.0,0.00,SSE,161,5.9,-999.0,100,0.01,,,-99.99,,2013-06-04 16:17:00,
2013-06-04 08:22:00,39.5,39.0,0.00,SE,140,5.5,-999.0,100,0.01,,,-99.99,,2013-06-04 16:22:00,
2013-06-04 08:27:00,39.5,39.0,0.00,SSE,149,4.9,-999.0,100,0.01,,,-99.99,,2013-06-04 16:27:00,
2013-06-04 08:32:00,39.4,39.0,0.00,SSE,156,5.0,-999.0,100,0.01,,,-99.99,,2013-06-04 16:32:00,
2013-06-04 08:37:00,39.5,39.0,0.00,SSE,166,4.6,-999.0,100,0.02,,,-99.99,,2013-06-04 16:37:00,
2013-06-04 08:42:00,39.4,39.0,0.00,SSE,148,4.4,-999.0,100,0.02,,,-99.99,,2013-06-04 16:42:00,
2013-06-04 08:47:00,39.7,39.0,0.00,SE,140,3.7,-999.0,100,0.02,,,-99.99,,2013-06-04 16:47:00,
2013-06-04 08:53:00,39.5,39.0,0.00,SSE,162,2.3,-999.0,100,0.02,,,-99.99,,2013-06-04 16:53:00,
2013-06-04 08:58:00,39.6,39.0,0.00,SSE,162,2.8,-999.0,100,0.02,,,-99.99,,2013-06-04 16:58:00,
2013-06-04 09:03:00,39.7,39.0,0.00,South,171,2.5,-999.0,100,0.01,,,-99.99,,2013-06-04 17:03:00,
2013-06-04 09:08:00,39.8,39.0,0.00,South,169,2.6,-999.0,100,0.01,,,-99.99,,2013-06-04 17:08:00,
2013-06-04 09:13:00,40.0,40.0,0.00,South,177,4.2,-999.0,100,0.01,,,-99.99,,2013-06-04 17:13:00,
2013-06-04 09:18:00,39.8,39.8,0.00,SSW,197,1.7,-999.0,99,0.01,,,-99.99,,2013-06-04 17:18:00,
2013-06-04 09:23:00,40.0,39.0,0.00,South,172,2.3,-999.0,100,0.01,,,-99.99,,2013-06-04 17:23:00,
2013-06-04 09:28:00,40.0,39.0,0.00,SSE,154,1.3,-999.0,100,0.01,,,-99.99,,2013-06-04 17:28:00,
2013-06-04 09:33:00,39.8,39.0,0.00,SSW,192,1.4,-999.0,100,0.01,,,-99.99,,2013-06-04 17:33:00,
2013-06-04 09:39:00,39.9,39.0,0.00,South,172,1.8,-999.0,100,0.01,,,-99.99,,2013-06-04 17:39:00,
2013-06-04 09:44:00,40.3,40.0,0.00,SE,134,3.7,-999.0,100,0.02,,,-99.99,,2013-06-04 17:44:00,
2013-06-04 09:49:00,40.1,40.0,0.00,South,174,2.8,-999.0,100,0.02,,,-99.99,,2013-06-04 17:49:00,
2013-06-04 09:54:00,40.2,40.0,0.00,SE,142,0.9,-999.0,100,0.03,,,-99.99,,2013-06-04 17:54:00,
2013-06-04 09:59:00,40.2,40.0,0.00,SE,143,1.1,-999.0,100,0.00,,,-99.99,,2013-06-04 17:59:00,
2013-06-04 10:04:00,40.1,40.0,0.00,SSE,154,3.2,-999.0,99,0.01,,,-99.99,,2013-06-04 18:04:00,
2013-06-04 10:09:00,40.1,40.0,0.00,SSW,203,0.5,-999.0,100,0.01,,,-99.99,,2013-06-04 18:09:00,
2013-06-04 10:14:00,40.3,40.0,0.00,SSE,167,2.7,-999.0,100,0.02,,,-99.99,,2013-06-04 18:14:00,
2013-06-04 10:19:00,40.1,40.0,0.00,SE,142,2.6,-999.0,100,0.02,,,-99.99,,2013-06-04 18:19:00,
2013-06-04 10:24:00,40.3,40.0,0.00,SSE,165,3.1,-999.0,100,0.02,,,-99.99,,2013-06-04 18:24:00,
2013-06-04 10:29:00,40.4,40.0,0.00,SSE,154,1.5,-999.0,100,0.03,,,-99.99,,2013-06-04 18:29:00,
2013-06-04 10:34:00,40.2,40.0,0.00,South,176,2.5,-999.0,100,0.03,,,-99.99,,2013-06-04 18:34:00,
2013-06-04 10:39:00,40.1,40.0,0.00,SSE,159,3.5,-999.0,100,0.03,,,-99.99,,2013-06-04 18:39:00,
2013-06-04 10:44:00,40.5,40.0,0.00,SSE,147,0.9,-999.0,100,0.04,,,-99.99,,2013-06-04 18:44:00,
2013-06-04 10:49:00,40.5,40.0,0.00,SSE,147,1.8,-999.0,100,0.04,,,-99.99,,2013-06-04 18:49:00,
2013-06-04 10:54:00,40.4,40.0,0.00,South,172,2.4,-999.0,100,0.05,,,-99.99,,2013-06-04 18:54:00,
2013-06-04 10:59:00,40.3,40.0,0.00,SE,134,2.9,-999.0,100,0.00,,,-99.99,,2013-06-04 18:59:00,
2013-06-04 11:04:00,40.6,40.0,0.00,ESE,123,2.8,-999.0,100,0.01,,,-99.99,,2013-06-04 19:04:00,
2013-06-04 11:09:00,40.2,40.0,0.00,SSE,157,3.9,-999.0,100,0.02,,,-99.99,,2013-06-04 19:09:00,
2013-06-04 11:14:00,40.4,40.0,0.00,SE,136,2.9,-999.0,100,0.03,,,-99.99,,2013-06-04 19:14:00,
2013-06-04 11:19:00,40.6,40.0,0.00,SSE,151,0.0,-999.0,100,0.05,,,-99.99,,2013-06-04 19:19:00,
2013-06-04 11:24:00,40.7,40.6,0.00,South,179,3.3,-999.0,99,0.06,,,-99.99,,2013-06-04 19:24:00,
2013-06-04 11:29:00,40.7,40.0,0.00,SSW,210,4.0,-999.0,100,0.07,,,-99.99,,2013-06-04 19:29:00,
2013-06-04 11:34:00,41.1,41.0,0.00,SSW,199,1.4,-999.0,100,0.07,,,-99.99,,2013-06-04 19:34:00,
2013-06-04 11:39:00,41.0,40.0,0.00,SW,216,2.3,-999.0,100,0.08,,,-99.99,,2013-06-04 19:39:00,
2013-06-04 11:44:00,40.6,40.0,0.00,SSW,212,2.0,-999.0,100,0.08,,,-99.99,,2013-06-04 19:44:00,
2013-06-04 11:49:00,40.8,40.0,0.00,SSE,154,1.2,-999.0,100,0.08,,,-99.99,,2013-06-04 19:49:00,
2013-06-04 11:54:00,40.5,40.0,0.00,SSE,164,2.7,-999.0,100,0.09,,,-99.99,,2013-06-04 19:54:00,
2013-06-04 11:59:00,40.4,40.0,0.00,South,177,2.5,-999.0,100,0.00,,,-99.99,,2013-06-04 19:59:00,
2013-06-04 12:04:00,40.3,40.0,0.00,SSE,154,2.8,-999.0,100,0.00,,,-99.99,,2013-06-04 20:04:00,
2013-06-04 12:09:00,40.4,40.3,0.00,SSE,167,3.1,-999.0,99,0.00,,,-99.99,,2013-06-04 20:09:00,
2013-06-04 12:14:00,40.7,40.6,0.00,SSE,162,1.8,-999.0,99,0.01,,,-99.99,,2013-06-04 20:14:00,
2013-06-04 12:19:00,40.1,40.0,0.00,SSE,155,4.2,-999.0,100,0.02,,,-99.99,,2013-06-04 20:19:00,
2013-06-04 12:24:00,40.2,40.0,0.00,South,179,3.8,-999.0,100,0.02,,,-99.99,,2013-06-04 20:24:00,
2013-06-04 12:29:00,40.3,40.0,0.00,SSE,167,4.4,-999.0,100,0.02,,,-99.99,,2013-06-04 20:29:00,
2013-06-04 12:34:00,40.3,40.0,0.00,South,170,2.3,-999.0,100,0.03,,,-99.99,,2013-06-04 20:34:00,
2013-06-04 12:39:00,40.6,40.0,0.00,South,178,3.1,-999.0,100,0.03,,,-99.99,,2013-06-04 20:39:00,
2013-06-04 12:45:00,40.4,40.0,0.00,SSE,166,4.2,-999.0,100,0.04,,,-99.99,,2013-06-04 20:45:00,
2013-06-04 12:50:00,40.1,40.0,0.00,South,173,2.4,-999.0,100,0.04,,,-99.99,,2013-06-04 20:50:00,
2013-06-04 12:55:00,40.6,40.0,0.00,SSE,156,2.2,-999.0,100,0.04,,,-99.99,,2013-06-04 20:55:00,
2013-06-04 13:00:00,40.7,40.7,0.00,South,180,3.4,-999.0,99,0.00,,,-99.99,,2013-06-04 21:00:00,
2013-06-04 13:05:00,40.1,40.0,0.00,South,179,1.7,-999.0,100,0.00,,,-99.99,,2013-06-04 21:05:00,
2013-06-04 13:10:00,40.6,40.0,0.00,SSE,159,3.5,-999.0,100,0.01,,,-99.99,,2013-06-04 21:10:00,
2013-06-04 13:15:00,41.0,41.0,0.00,SSW,204,1.4,-999.0,100,0.01,,,-99.99,,2013-06-04 21:15:00,
2013-06-04 13:20:00,41.0,40.0,0.00,South,191,3.8,-999.0,100,0.01,,,-99.99,,2013-06-04 21:20:00,
2013-06-04 13:25:00,40.5,40.0,0.00,SSW,211,1.7,-999.0,100,0.02,,,-99.99,,2013-06-04 21:25:00,
2013-06-04 13:30:00,40.4,40.0,0.00,South,179,3.8,-999.0,100,0.02,,,-99.99,,2013-06-04 21:30:00,
2013-06-04 13:35:00,40.4,40.0,0.00,South,175,4.2,-999.0,100,0.03,,,-99.99,,2013-06-04 21:35:00,
2013-06-04 13:40:00,40.6,40.0,0.00,South,178,2.8,-999.0,100,0.03,,,-99.99,,2013-06-04 21:40:00,
2013-06-04 13:45:00,40.7,40.7,0.00,South,169,3.8,-999.0,99,0.03,,,-99.99,,2013-06-04 21:45:00,
2013-06-04 13:50:00,41.0,41.0,0.00,South,176,4.6,-999.0,100,0.03,,,-99.99,,2013-06-04 21:50:00,
2013-06-04 13:55:00,40.6,40.6,0.00,South,177,5.3,-999.0,99,0.03,,,-99.99,,2013-06-04 21:55:00,
2013-06-04 14:00:00,40.6,40.5,0.00,SSE,159,4.5,-999.0,99,0.00,,,-99.99,,2013-06-04 22:00:00,
2013-06-04 14:05:00,40.3,40.3,0.00,SSE,152,5.6,-999.0,99,0.00,,,-99.99,,2013-06-04 22:05:00,
2013-06-04 14:10:00,40.5,40.0,0.00,South,169,2.4,-999.0,100,0.01,,,-99.99,,2013-06-04 22:10:00,
2013-06-04 14:15:00,40.4,40.3,0.00,SSE,155,3.2,-999.0,99,0.02,,,-99.99,,2013-06-04 22:15:00,
2013-06-04 14:20:00,40.0,40.0,0.00,SSE,165,4.5,-999.0,100,0.02,,,-99.99,,2013-06-04 22:20:00,
2013-06-04 14:25:00,40.2,40.0,0.00,SSE,151,5.1,-999.0,100,0.02,,,-99.99,,2013-06-04 22:25:00,
2013-06-04 14:30:00,40.2,40.1,0.00,SE,136,5.4,-999.0,99,0.02,,,-99.99,,2013-06-04 22:30:00,
2013-06-04 14:35:00,40.5,40.4,0.00,South,183,3.3,-999.0,99,0.02,,,-99.99,,2013-06-04 22:35:00,
2013-06-04 14:40:00,40.1,40.0,0.00,SSE,153,7.3,-999.0,99,0.03,,,-99.99,,2013-06-04 22:40:00,
2013-06-04 14:45:00,40.2,40.2,0.00,South,174,4.4,-999.0,99,0.03,,,-99.99,,2013-06-04 22:45:00,
2013-06-04 14:50:00,40.0,40.0,0.00,SSE,158,4.8,-999.0,99,0.04,,,-99.99,,2013-06-04 22:50:00,
2013-06-04 14:55:00,40.6,40.5,0.00,SSE,147,6.0,-999.0,99,0.04,,,-99.99,,2013-06-04 22:55:00,
2013-06-04 15:00:00,40.4,40.0,0.00,SSE,163,3.7,-999.0,100,0.00,,,-99.99,,2013-06-04 23:00:00,
2013-06-04 15:05:00,40.7,40.6,0.00,SE,141,3.4,-999.0,99,0.00,,,-99.99,,2013-06-04 23:05:00,
2013-06-04 15:10:00,40.7,40.6,0.00,SSE,161,5.4,-999.0,99,0.00,,,-99.99,,2013-06-04 23:10:00,
2013-06-04 15:15:00,40.8,40.7,0.00,South,179,6.4,-999.0,99,0.00,,,-99.99,,2013-06-04 23:15:00,
2013-06-04 15:20:00,40.8,40.7,0.00,SSE,153,4.7,-999.0,99,0.00,,,-99.99,,2013-06-04 23:20:00,
2013-06-04 15:27:00,40.9,40.9,0.00,South,178,6.0,-999.0,99,0.00,,,-99.99,,2013-06-04 23:27:00,
2013-06-04 15:32:00,41.2,41.2,0.00,South,185,4.6,-999.0,99,0.00,,,-99.99,,2013-06-04 23:32:00,
2013-06-04 15:37:00,40.6,40.6,0.00,ESE,111,1.8,-999.0,99,0.00,,,-99.99,,2013-06-04 23:37:00,
2013-06-04 15:42:00,41.1,41.0,0.00,South,179,6.8,-999.0,100,0.00,,,-99.99,,2013-06-04 23:42:00,
2013-06-04 15:47:00,41.0,41.0,0.00,SSE,166,3.4,-999.0,99,0.00,,,-99.99,,2013-06-04 23:47:00,
2013-06-04 15:52:00,40.9,40.9,0.00,South,169,4.9,-999.0,99,0.00,,,-99.99,,2013-06-04 23:52:00,
2013-06-04 15:57:00,41.0,41.0,0.00,SSE,160,6.8,-999.0,99,0.00,,,-99.99,,2013-06-04 23:57:00,
2013-06-04 16:02:00,41.0,40.9,0.00,SSE,166,4.0,-999.0,99,0.00,,,-99.99,,2013-06-05 00:02:00,
2013-06-04 16:07:00,40.7,40.0,0.00,SSE,156,6.6,-999.0,100,0.00,,,-99.99,,2013-06-05 00:07:00,
2013-06-04 16:12:00,40.5,40.4,0.00,SSE,167,4.7,-999.0,99,0.00,,,-99.99,,2013-06-05 00:12:00,
2013-06-04 16:17:00,40.6,40.6,0.00,SSE,163,6.4,-999.0,99,0.01,,,-99.99,,2013-06-05 00:17:00,
2013-06-04 16:22:00,41.2,41.0,0.00,South,185,6.1,-999.0,100,0.01,,,-99.99,,2013-06-05 00:22:00,
2013-06-04 16:27:00,41.2,41.0,0.00,South,175,3.1,-999.0,100,0.01,,,-99.99,,2013-06-05 00:27:00,
2013-06-04 16:33:00,41.6,41.0,0.00,SSW,192,5.1,-999.0,100,0.01,,,-99.99,,2013-06-05 00:33:00,
2013-06-04 16:38:00,41.3,41.2,0.00,SE,135,4.9,-999.0,99,0.01,,,-99.99,,2013-06-05 00:38:00,
2013-06-04 16:43:00,41.8,41.7,0.00,SSE,157,6.8,-999.0,99,0.01,,,-99.99,,2013-06-05 00:43:00,
2013-06-04 16:48:00,41.4,41.0,0.00,SSE,157,5.8,-999.0,100,0.01,,,-99.99,,2013-06-05 00:48:00,
2013-06-04 16:53:00,41.8,41.7,0.00,SSE,165,6.5,-999.0,99,0.01,,,-99.99,,2013-06-05 00:53:00,
2013-06-04 16:58:00,41.2,41.2,0.00,SSE,164,5.2,-999.0,99,0.01,,,-99.99,,2013-06-05 00:58:00,
2013-06-04 17:03:00,42.1,42.1,0.00,SSE,147,2.6,-999.0,99,0.00,,,-99.99,,2013-06-05 01:03:00,
2013-06-04 17:08:00,40.9,40.8,0.00,SSE,156,4.8,-999.0,99,0.00,,,-99.99,,2013-06-05 01:08:00,
2013-06-04 17:13:00,41.0,40.9,0.00,SSE,154,6.7,-999.0,99,0.00,,,-99.99,,2013-06-05 01:13:00,
2013-06-04 17:18:00,41.4,41.3,0.00,SE,138,4.6,-999.0,99,0.00,,,-99.99,,2013-06-05 01:18:00,
2013-06-04 17:23:00,41.0,41.0,0.00,SE,128,7.3,-999.0,99,0.00,,,-99.99,,2013-06-05 01:23:00,
2013-06-04 17:28:00,41.0,41.0,0.00,SSE,147,6.6,-999.0,99,0.00,,,-99.99,,2013-06-05 01:28:00,
2013-06-04 17:33:00,41.3,41.3,0.00,SE,135,7.2,-999.0,99,0.00,,,-99.99,,2013-06-05 01:33:00,
2013-06-04 17:38:00,41.5,41.5,0.00,South,186,3.5,-999.0,99,0.00,,,-99.99,,2013-06-05 01:38:00,
2013-06-04 17:43:00,41.2,41.2,0.00,SSE,163,4.5,-999.0,99,0.00,,,-99.99,,2013-06-05 01:43:00,
2013-06-04 17:48:00,41.6,41.5,0.00,South,180,5.4,-999.0,99,0.00,,,-99.99,,2013-06-05 01:48:00,
2013-06-04 17:53:00,41.7,41.6,0.00,South,170,5.0,-999.0,99,0.00,,,-99.99,,2013-06-05 01:53:00,
2013-06-04 17:58:00,42.0,42.0,0.00,South,180,6.4,-999.0,99,0.00,,,-99.99,,2013-06-05 01:58:00,
2013-06-04 18:03:00,41.2,41.2,0.00,South,182,6.2,-999.0,99,0.00,,,-99.99,,2013-06-05 02:03:00,
2013-06-04 18:08:00,41.7,41.7,0.00,SE,130,5.1,-999.0,99,0.00,,,-99.99,,2013-06-05 02:08:00,
2013-06-04 18:13:00,41.3,41.2,0.00,SSE,165,7.4,-999.0,99,0.00,,,-99.99,,2013-06-05 02:13:00,
2013-06-04 18:18:00,40.9,40.8,0.00,SE,136,6.5,-999.0,99,0.00,,,-99.99,,2013-06-05 02:18:00,
2013-06-04 18:23:00,40.7,40.6,0.00,SSE,149,7.2,-999.0,99,0.00,,,-99.99,,2013-06-05 02:23:00,
2013-06-04 18:28:00,40.6,40.5,0.00,SSE,154,6.5,-999.0,99,0.00,,,-99.99,,2013-06-05 02:28:00,
2013-06-04 18:33:00,41.3,41.2,0.00,SSE,165,6.2,-999.0,99,0.00,,,-99.99,,2013-06-05 02:33:00,
2013-06-04 18:38:00,41.0,40.9,0.00,SSE,147,7.4,-999.0,99,0.00,,,-99.99,,2013-06-05 02:38:00,
2013-06-04 18:43:00,40.6,40.6,0.00,SSE,157,9.0,-999.0,99,0.00,,,-99.99,,2013-06-05 02:43:00,
2013-06-04 18:48:00,40.9,40.8,0.00,SSE,164,7.4,-999.0,99,0.00,,,-99.99,,2013-06-05 02:48:00,
2013-06-04 18:53:00,40.5,40.4,0.00,SSE,161,7.7,-999.0,99,0.00,,,-99.99,,2013-06-05 02:53:00,
2013-06-04 18:58:00,40.5,40.4,0.00,SSE,162,5.3,-999.0,99,0.00,,,-99.99,,2013-06-05 02:58:00,
2013-06-04 19:03:00,41.0,40.9,0.00,SSE,165,5.6,-999.0,99,0.00,,,-99.99,,2013-06-05 03:03:00,
2013-06-04 19:08:00,40.9,40.8,0.00,SE,144,5.1,-999.0,99,0.00,,,-99.99,,2013-06-05 03:08:00,
2013-06-04 19:13:00,40.6,40.5,0.00,SSE,160,6.4,-999.0,99,0.00,,,-99.99,,2013-06-05 03:13:00,
2013-06-04 19:19:00,40.4,40.4,0.00,SSE,148,6.2,-999.0,99,0.00,,,-99.99,,2013-06-05 03:19:00,
2013-06-04 19:24:00,40.5,40.4,0.00,SSE,158,8.1,-999.0,99,0.00,,,-99.99,,2013-06-05 03:24:00,
2013-06-04 19:29:00,40.3,40.2,0.00,SSE,154,5.7,-999.0,99,0.00,,,-99.99,,2013-06-05 03:29:00,
2013-06-04 19:34:00,40.1,40.0,0.00,SSE,162,7.3,-999.0,99,0.00,,,-99.99,,2013-06-05 03:34:00,
2013-06-04 19:39:00,40.5,40.4,0.00,South,170,6.0,-999.0,99,0.00,,,-99.99,,2013-06-05 03:39:00,
2013-06-04 19:44:00,40.3,40.2,0.00,SSE,160,6.8,-999.0,99,0.00,,,-99.99,,2013-06-05 03:44:00,
2013-06-04 19:49:00,39.8,39.8,0.00,South,183,7.4,-999.0,99,0.00,,,-99.99,,2013-06-05 03:49:00,
2013-06-04 19:54:00,40.0,40.0,0.00,South,185,3.5,-999.0,99,0.00,,,-99.99,,2013-06-05 03:54:00,
2013-06-04 19:59:00,40.2,40.1,0.00,SSE,157,4.4,-999.0,99,0.00,,,-99.99,,2013-06-05 03:59:00,
2013-06-04 20:01:00,40.1,40.1,0.00,South,173,6.8,-999.0,99,0.00,,,-99.99,,2013-06-05 04:01:00,
2013-06-04 20:02:00,40.0,39.9,0.00,South,173,7.0,-999.0,99,0.00,,,-99.99,,2013-06-05 04:02:00,
2013-06-04 20:03:00,39.9,39.8,0.00,South,174,6.7,-999.0,99,0.00,,,-99.99,,2013-06-05 04:03:00,
2013-06-04 20:04:00,40.1,40.0,0.00,South,174,6.7,-999.0,99,0.00,,,-99.99,,2013-06-05 04:04:00,
2013-06-04 20:06:00,40.0,39.9,0.00,South,177,7.4,-999.0,99,0.00,,,-99.99,,2013-06-05 04:06:00,
2013-06-04 20:12:00,39.9,39.8,0.00,South,179,7.3,-999.0,99,0.00,,,-99.99,,2013-06-05 04:12:00,
2013-06-04 20:17:00,40.0,39.9,0.00,SSE,166,6.4,-999.0,99,0.00,,,-99.99,,2013-06-05 04:17:00,
2013-06-04 20:22:00,40.1,40.0,0.00,SSE,149,4.0,-999.0,99,0.00,,,-99.99,,2013-06-05 04:22:00,
2013-06-04 20:27:00,40.1,40.1,0.00,SSE,158,3.1,-999.0,99,0.00,,,-99.99,,2013-06-05 04:27:00,
2013-06-04 20:32:00,40.2,40.1,0.00,SE,137,3.8,-999.0,99,0.00,,,-99.99,,2013-06-05 04:32:00,
2013-06-04 20:37:00,40.3,40.2,0.00,SE,127,3.8,-999.0,99,0.00,,,-99.99,,2013-06-05 04:37:00,
2013-06-04 20:42:00,40.1,40.1,0.00,SSE,149,3.4,-999.0,99,0.00,,,-99.99,,2013-06-05 04:42:00,
2013-06-04 20:47:00,40.3,40.2,0.00,SSE,155,3.5,-999.0,99,0.00,,,-99.99,,2013-06-05 04:47:00,
2013-06-04 20:52:00,40.1,40.1,0.00,SSW,205,2.5,-999.0,99,0.00,,,-99.99,,2013-06-05 04:52:00,
2013-06-04 20:57:00,39.9,39.8,0.00,South,178,4.9,-999.0,99,0.00,,,-99.99,,2013-06-05 04:57:00,
2013-06-04 21:02:00,39.8,39.8,0.00,South,179,3.5,-999.0,99,0.00,,,-99.99,,2013-06-05 05:02:00,
2013-06-04 21:07:00,39.9,39.8,0.00,South,175,5.0,-999.0,99,0.00,,,-99.99,,2013-06-05 05:07:00,
2013-06-04 21:12:00,39.8,39.8,0.00,SSE,161,4.0,-999.0,99,0.00,,,-99.99,,2013-06-05 05:12:00,
2013-06-04 21:17:00,39.9,39.8,0.00,SSE,161,5.0,-999.0,99,0.00,,,-99.99,,2013-06-05 05:17:00,
2013-06-04 21:22:00,40.0,39.9,0.00,SSE,168,4.4,-999.0,99,0.00,,,-99.99,,2013-06-05 05:22:00,
2013-06-04 21:27:00,40.3,40.3,0.00,SSE,165,3.4,-999.0,99,0.00,,,-99.99,,2013-06-05 05:27:00,
2013-06-04 21:32:00,40.0,40.0,0.00,SSE,168,4.0,-999.0,99,0.00,,,-99.99,,2013-06-05 05:32:00,
2013-06-04 21:37:00,40.6,40.0,0.00,South,172,2.6,-999.0,100,0.00,,,-99.99,,2013-06-05 05:37:00,
2013-06-04 21:42:00,40.0,40.0,0.00,SSE,155,3.4,-999.0,99,0.00,,,-99.99,,2013-06-05 05:42:00,
2013-06-04 21:47:00,39.9,39.8,0.00,South,190,2.7,-999.0,99,0.00,,,-99.99,,2013-06-05 05:47:00,
2013-06-04 21:52:00,39.8,39.8,0.00,SSE,158,3.8,-999.0,99,0.00,,,-99.99,,2013-06-05 05:52:00,
2013-06-04 21:57:00,39.7,39.6,0.00,SSE,163,5.2,-999.0,99,0.00,,,-99.99,,2013-06-05 05:57:00,
2013-06-04 22:02:00,39.8,39.8,0.00,SSE,160,4.8,-999.0,99,0.00,,,-99.99,,2013-06-05 06:02:00,
2013-06-04 22:07:00,39.6,39.5,0.00,SSE,147,2.7,-999.0,99,0.00,,,-99.99,,2013-06-05 06:07:00,
2013-06-04 22:12:00,39.7,39.6,0.00,South,190,2.1,-999.0,99,0.00,,,-99.99,,2013-06-05 06:12:00,
2013-06-04 22:17:00,39.9,39.8,0.00,South,179,3.5,-999.0,99,0.00,,,-99.99,,2013-06-05 06:17:00,
2013-06-04 22:22:00,40.0,39.9,0.00,South,174,2.9,-999.0,99,0.00,,,-99.99,,2013-06-05 06:22:00,
2013-06-04 22:27:00,39.8,39.8,0.00,SSE,161,1.3,-999.0,99,0.00,,,-99.99,,2013-06-05 06:27:00,
2013-06-04 22:32:00,39.7,39.6,0.00,ESE,114,1.1,-999.0,99,0.00,,,-99.99,,2013-06-05 06:32:00,
2013-06-04 22:37:00,39.7,39.6,0.00,SE,140,1.1,-999.0,99,0.00,,,-99.99,,2013-06-05 06:37:00,
2013-06-04 22:42:00,39.8,39.7,0.00,SE,146,1.0,-999.0,99,0.00,,,-99.99,,2013-06-05 06:42:00,
2013-06-04 22:47:00,39.7,39.6,0.00,SSE,150,2.1,-999.0,99,0.00,,,-99.99,,2013-06-05 06:47:00,
2013-06-04 22:52:00,39.7,39.0,0.00,SE,146,1.8,-999.0,100,0.00,,,-99.99,,2013-06-05 06:52:00,
2013-06-04 22:57:00,39.6,39.6,0.00,SE,132,2.0,-999.0,99,0.00,,,-99.99,,2013-06-05 06:57:00,
2013-06-04 23:02:00,39.9,39.9,0.00,ESE,118,1.5,-999.0,99,0.00,,,-99.99,,2013-06-05 07:02:00,
2013-06-04 23:07:00,40.0,39.9,0.00,SE,125,0.6,-999.0,99,0.00,,,-99.99,,2013-06-05 07:07:00,
2013-06-04 23:12:00,40.1,40.0,0.00,SE,137,1.8,-999.0,99,0.00,,,-99.99,,2013-06-05 07:12:00,
2013-06-04 23:18:00,39.8,39.7,0.00,SE,124,2.6,-999.0,99,0.00,,,-99.99,,2013-06-05 07:18:00,
2013-06-04 23:23:00,39.9,39.9,0.00,ESE,115,2.5,-999.0,99,0.00,,,-99.99,,2013-06-05 07:23:00,
2013-06-04 23:28:00,40.0,39.0,0.00,ESE,118,2.5,-999.0,100,0.00,,,-99.99,,2013-06-05 07:28:00,
2013-06-04 23:33:00,40.0,39.9,0.00,SE,126,2.8,-999.0,99,0.00,,,-99.99,,2013-06-05 07:33:00,
2013-06-04 23:38:00,40.1,40.0,0.00,SE,132,4.2,-999.0,99,0.00,,,-99.99,,2013-06-05 07:38:00,
2013-06-04 23:43:00,39.9,39.8,0.00,SE,135,5.0,-999.0,99,0.00,,,-99.99,,2013-06-05 07:43:00,
2013-06-04 23:48:00,40.0,40.0,0.00,ESE,122,3.2,-999.0,99,0.00,,,-99.99,,2013-06-05 07:48:00,
2013-06-04 23:53:00,40.1,40.0,0.00,SE,141,4.0,-999.0,100,0.00,,,-99.99,,2013-06-05 07:53:00,
2013-06-04 23:58:00,40.1,40.1,0.00,SSE,155,4.6,-999.0,99,0.00,,,-99.99,,2013-06-05 07:58:00,